Cecil Field, FL

10:53 AM EDT on August 18, 2017 (GMT -0400)
Cecil

Weather History for KVQQ - October, 2011

Change the Weather History Date:

Saturday, October 1, 2011

  Actual Average (KNIP) Record (KNIP)
Temperature  
Mean Temperature 62 °F -  
Max Temperature 77 °F 82 °F 91 °F (2012)
Min Temperature 48 °F 69 °F 59 °F (2001)
Degree Days  
Heating Degree Days 2    
Growing Degree Days 12 (Base 50)    
Moisture  
Dew Point 48 °F    
Average Humidity 61    
Maximum Humidity 93    
Minimum Humidity 31    
Precipitation  
Precipitation 0.77 in - - ()
Sea Level Pressure  
Sea Level Pressure 29.92 in    
Wind  
Wind Speed 6 mph (NNW)    
Max Wind Speed 13 mph    
Max Gust Speed -    
Visibility 10 miles    
Events      
Averages and records for this station are not official NWS values.
T = Trace of Precipitation, MM = Missing Value Source: NWS Daily Summary

Daily Weather History Graph

Daily Weather History Graph

Search for Another Location

Airport or City:

Trip Planner

Search our weather history database for the weather conditions in past years. The results will help you decide how hot, cold, wet, or windy it might be!

Date:

Astronomy

Oct. 01, 2011 Rise Set
Actual Time 7:20 AM EDT 7:13 PM EDT
Civil Twilight 6:56 AM EDT 7:37 PM EDT
Nautical Twilight 6:29 AM EDT 8:04 PM EDT
Astronomical Twilight 6:01 AM EDT 8:32 PM EDT
Moon 12:01 PM EDT (10/1) 10:33 PM EDT (10/1)
Length of Visible Light 12h 40m
Length of Day
11h 52m
Waxing Crescent, 24% of the Moon is Illuminated
Oct 1
Waxing Crescent
Oct 3
First Quarter
Oct 11
Full
Oct 19
Last Quarter
Oct 26
New

Hourly Weather History & Observations

Time (EDT) Temp. Dew Point Humidity Pressure Visibility Wind Dir Wind Speed Gust Speed Precip Events Conditions
12:15 AM 71.6 °F 59.0 °F 64% 29.83 in 10.0 mi NNW 5.8 mph - 0.07 in   Clear
12:55 AM 71.6 °F 53.6 °F 53% 29.83 in 10.0 mi NNW 10.4 mph - 0.07 in   Scattered Clouds
1:15 AM 69.8 °F 50.0 °F 49% 29.84 in 10.0 mi North 6.9 mph - 0.07 in   Partly Cloudy
1:35 AM 68.0 °F 48.2 °F 49% 29.84 in 10.0 mi North 5.8 mph - 0.07 in   Clear
1:55 AM 68.0 °F 48.2 °F 49% 29.85 in 10.0 mi North 4.6 mph - 0.07 in   Clear
2:15 AM 66.2 °F 48.2 °F 52% 29.85 in 10.0 mi NNW 5.8 mph - 0.07 in   Clear
2:35 AM 66.2 °F 48.2 °F 52% 29.85 in 10.0 mi NNW 5.8 mph - 0.07 in   Clear
2:55 AM 66.2 °F 48.2 °F 52% 29.86 in 10.0 mi NNW 6.9 mph - 0.07 in   Clear
3:15 AM 66.2 °F 48.2 °F 52% 29.86 in 10.0 mi North 5.8 mph - 0.07 in   Clear
3:55 AM 64.4 °F 48.2 °F 56% 29.86 in 10.0 mi North 8.1 mph - 0.07 in   Clear
4:15 AM 62.6 °F 48.2 °F 59% 29.86 in 10.0 mi NNW 8.1 mph - 0.07 in   Clear
4:35 AM 62.6 °F 48.2 °F 59% 29.86 in 10.0 mi NNW 5.8 mph - 0.07 in   Clear
5:15 AM 62.6 °F 48.2 °F 59% 29.87 in 10.0 mi NW 9.2 mph - 0.07 in   Clear
5:35 AM 60.8 °F 48.2 °F 63% 29.88 in 10.0 mi NW 4.6 mph - 0.07 in   Clear
5:55 AM 59.0 °F 48.2 °F 67% 29.88 in 10.0 mi NNW 5.8 mph - 0.07 in   Clear
6:15 AM 59.0 °F 48.2 °F 67% 29.89 in 10.0 mi NNW 5.8 mph - 0.07 in   Clear
6:50 AM 57.2 °F 48.2 °F 72% 29.90 in 10.0 mi NNW 9.2 mph - N/A   Clear
7:50 AM 57.2 °F 48.2 °F 72% 29.91 in 10.0 mi NNW 10.4 mph - N/A   Clear
8:50 AM 60.8 °F 50.0 °F 68% 29.93 in 10.0 mi NW 10.4 mph - N/A   Clear
9:50 AM 64.4 °F 48.2 °F 56% 29.94 in 10.0 mi NNW 12.7 mph - N/A   Clear
10:50 AM 68.0 °F 50.0 °F 52% 29.95 in 10.0 mi North 10.4 mph - N/A   Clear
11:50 AM 71.6 °F 48.2 °F 43% 29.96 in 10.0 mi NNE 8.1 mph - N/A   Clear
12:50 PM 73.4 °F 50.0 °F 44% 29.94 in 10.0 mi NNW 5.8 mph - N/A   Clear
1:50 PM 75.2 °F 48.2 °F 38% 29.92 in 10.0 mi NW 11.5 mph - N/A   Clear
2:50 PM 77.0 °F 48.2 °F 36% 29.90 in 10.0 mi NW 6.9 mph - N/A   Clear
3:50 PM 77.0 °F 48.2 °F 36% 29.90 in 10.0 mi NNW 12.7 mph - N/A   Clear
4:50 PM 77.0 °F 46.4 °F 34% 29.90 in 10.0 mi North 11.5 mph - N/A   Clear
5:50 PM 75.2 °F 42.8 °F 31% 29.91 in 10.0 mi NNW 11.5 mph - N/A   Clear
6:50 PM 71.6 °F 44.6 °F 38% 29.92 in 10.0 mi NNW 5.8 mph - N/A   Clear
7:50 PM 64.4 °F 44.6 °F 49% 29.94 in 10.0 mi Calm Calm - N/A   Clear
8:55 PM 53.6 °F 48.2 °F 82% 29.98 in 10.0 mi Calm Calm - 0.07 in   Clear
9:15 PM 51.8 °F 46.4 °F 82% 29.98 in 10.0 mi Calm Calm - 0.07 in   Clear
9:35 PM 51.8 °F 46.4 °F 82% 29.99 in 10.0 mi Calm Calm - 0.07 in   Clear
9:55 PM 50.0 °F 46.4 °F 87% 30.00 in 10.0 mi Calm Calm - 0.07 in   Clear
10:15 PM 50.0 °F 46.4 °F 87% 30.00 in 10.0 mi Calm Calm - 0.07 in   Clear
10:35 PM 50.0 °F 46.4 °F 87% 30.00 in 10.0 mi Calm Calm - 0.07 in   Clear
10:55 PM 48.2 °F 46.4 °F 93% 30.01 in 10.0 mi Calm Calm - 0.07 in   Clear
11:15 PM 48.2 °F 46.4 °F 93% 30.01 in 10.0 mi Calm Calm - 0.07 in   Clear
11:35 PM 48.2 °F 46.4 °F 93% 30.02 in 10.0 mi Calm Calm - 0.07 in   Clear
11:55 PM 48.2 °F 46.4 °F 93% 30.02 in 10.0 mi Calm Calm - 0.07 in   Clear